DW8306 Weather Reports


time (UTC)temp
C
wind
direction
speed
KPH
gust
KPH
rain 1hr
cm
rain 24hr
cm
rain mn
cm
humidity
%
barometer
mb
20260508024526 16 4 0.0 0.0 0.00 0.00 0.00 80 1015.5
20260508023107 17 4 0.0 0.0 0.00 0.00 0.00 79 1015.2
20260508021508 17 4 0.0 0.0 0.00 0.00 0.00 79 1014.7
20260508020014 17 4 0.0 0.0 0.00 0.00 0.00 78 1015.0
20260508014617 18 4 0.0 0.0 0.00 0.00 0.00 78 1015.1
20260508013015 18 8 0.0 1.6 0.00 0.00 0.00 77 1014.6
20260508011514 18 4 0.0 3.2 0.00 0.00 0.00 75 1014.1
20260508010106 18 4 0.0 3.2 0.00 0.00 0.00 75 1014.4
20260508004607 19 8 0.0 1.6 0.00 0.00 0.00 73 1014.7
20260508003108 20 4 0.0 1.6 0.00 0.00 0.00 72 1014.5
20260508001608 20 4 0.0 3.2 0.00 0.00 0.00 70 1014.7
20260508000114 20 87 0.0 3.2 0.00 0.00 0.00 70 1015.0
20260507234528 20 18 0.0 6.4 0.00 0.00 0.00 68 1014.7
20260507233025 21 359 0.0 1.6 0.00 0.00 0.00 68 1014.5
20260507231506 21 359 0.0 6.4 0.00 0.00 0.00 66 1014.6
20260507230016 21 91 3.2 8.0 0.00 0.00 0.00 65 1014.5
20260507224514 21 335 0.0 6.4 0.00 0.00 0.00 64 1014.9
20260507223008 21 327 0.0 8.0 0.00 0.00 0.00 63 1014.9
20260507221509 22 79 3.2 9.7 0.00 0.00 0.00 62 1014.7
20260507220009 21 75 3.2 9.7 0.00 0.00 0.00 62 1014.6
20260507213027 21 19 0.0 6.4 0.00 0.00 0.00 65 1015.1
20260507211507 21 94 4.8 9.7 0.00 0.00 0.00 59 1014.8
20260507210116 22 335 3.2 9.7 0.00 0.00 0.00 57 1015.5
20260507204515 22 354 4.8 11.3 0.00 0.00 0.00 58 1015.3
20260507203016 22 9 4.8 11.3 0.00 0.00 0.00 58 1015.3
20260507201620 22 325 1.6 11.3 0.00 0.00 0.00 58 1015.4
20260507200018 22 334 4.8 12.9 0.00 0.00 0.00 57 1015.7
20260507194530 22 260 6.4 17.7 0.00 0.00 0.00 55 1016.0
20260507193108 22 277 8.0 16.1 0.00 0.00 0.00 56 1016.0
20260507191511 21 37 6.4 14.5 0.00 0.00 0.00 58 1016.0
20260507190019 21 52 6.4 16.1 0.00 0.00 0.00 59 1016.1
20260507184527 22 13 1.6 19.3 0.00 0.00 0.00 60 1016.1
20260507183022 21 25 6.4 12.9 0.00 0.00 0.00 60 1016.0
20260507181607 21 36 1.6 16.1 0.00 0.00 0.00 62 1016.5
20260507180022 20 297 4.8 16.1 0.00 0.00 0.00 61 1016.3
20260507174608 20 135 6.4 12.9 0.00 0.00 0.00 62 1016.7
20260507173125 20 54 3.2 14.5 0.00 0.00 0.00 63 1017.2
20260507171515 20 56 4.8 14.5 0.00 0.00 0.00 61 1017.5
20260507170011 19 354 6.4 17.7 0.00 0.00 0.00 64 1017.6
20260507164520 19 97 3.2 19.3 0.00 0.00 0.00 60 1017.6
20260507163119 19 316 6.4 16.1 0.00 0.00 0.00 62 1017.8
20260507160007 18 332 3.2 16.1 0.00 0.00 0.00 62 1017.7
20260507154505 18 4 3.2 12.9 0.00 0.00 0.00 60 1017.8
20260507153108 18 83 4.8 14.5 0.00 0.00 0.00 63 1017.9
20260507151506 17 11 6.4 20.9 0.00 0.00 0.00 64 1017.9
20260507150109 17 32 4.8 12.9 0.00 0.00 0.00 66 1018.1
20260507144523 16 354 3.2 11.3 0.00 0.00 0.00 70 1018.3
20260507143120 15 53 1.6 12.9 0.00 0.00 0.00 70 1018.4
20260507140107 14 328 4.8 12.9 0.00 0.00 0.00 76 1017.6
20260507134509 13 334 4.8 11.3 0.00 0.00 0.00 78 1017.6
20260507133107 13 359 6.4 11.3 0.00 0.00 0.00 80 1018.0
20260507130006 12 333 3.2 11.3 0.00 0.00 0.00 82 1017.4
20260507124512 12 343 1.6 14.5 0.00 0.00 0.00 83 1017.6
20260507123008 12 354 4.8 12.9 0.00 0.00 0.00 83 1017.5
20260507121608 12 344 6.4 14.5 0.00 0.00 0.00 83 1017.1
20260507120009 11 323 1.6 11.3 0.00 0.00 0.00 85 1017.2
20260507114510 11 339 1.6 9.7 0.00 0.00 0.00 85 1016.7
20260507113017 11 318 1.6 9.7 0.00 0.00 0.00 85 1016.0
20260507111510 11 41 1.6 6.4 0.00 0.00 0.00 86 1015.7
20260507110105 11 328 0.0 9.7 0.00 0.00 0.00 85 1015.6
20260507104606 11 83 3.2 12.9 0.00 0.00 0.00 84 1015.4
20260507103021 11 345 1.6 6.4 0.00 0.00 0.00 84 1015.5
20260507101606 11 25 0.0 8.0 0.00 0.00 0.00 84 1015.1
20260507100123 12 354 0.0 0.0 0.00 0.00 0.00 83 1015.4
20260507094506 12 59 0.0 6.4 0.00 0.00 0.00 83 1014.8
20260507093107 12 13 0.0 9.7 0.00 0.00 0.00 83 1015.2
20260507091506 12 77 0.0 8.0 0.00 0.00 0.00 82 1015.1
20260507090007 12 62 1.6 9.7 0.00 0.00 0.00 83 1015.2
20260507084617 12 4 3.2 11.3 0.00 0.00 0.00 83 1014.9
20260507083021 12 335 4.8 14.5 0.00 0.00 0.00 83 1015.2
20260507081520 12 52 4.8 11.3 0.00 0.00 0.00 83 1015.1
20260507080012 12 11 0.0 9.7 0.00 0.00 0.00 84 1015.4
20260507074515 12 359 3.2 11.3 0.00 0.00 0.00 84 1015.6
20260507073013 12 334 3.2 12.9 0.00 0.00 0.00 84 1015.7
20260507071513 12 4 4.8 12.9 0.00 0.00 0.00 84 1015.8
20260507070113 12 83 3.2 14.5 0.00 0.00 0.00 84 1015.6
20260507064515 12 4 4.8 11.3 0.00 0.00 0.00 85 1016.0
20260507063009 12 11 4.8 12.9 0.00 0.00 0.00 84 1015.8
20260507061612 12 35 1.6 12.9 0.00 0.00 0.00 86 1015.5
20260507060003 12 4 3.2 8.0 0.00 0.00 0.00 87 1016.0
20260507054506 12 332 4.8 14.5 0.00 0.00 0.00 87 1016.0
20260507053018 12 354 6.4 14.5 0.00 0.00 0.00 88 1015.9
20260507051605 12 12 4.8 14.5 0.00 0.00 0.00 89 1015.5
20260507050014 12 330 8.0 16.1 0.00 0.00 0.00 89 1015.5
20260507044521 12 354 4.8 11.3 0.00 0.00 0.00 90 1015.4
20260507041518 12 41 0.0 11.3 0.00 0.00 0.00 90 1014.9
20260507040019 13 322 0.0 8.0 0.00 0.00 0.00 90 1015.0
20260507034607 13 326 4.8 14.5 0.00 0.00 0.00 89 1014.7
20260507033008 13 335 4.8 11.3 0.00 0.00 0.00 88 1014.8
20260507031506 13 27 1.6 11.3 0.00 0.00 0.00 88 1014.6
20260507030009 13 324 3.2 14.5 0.00 0.00 0.00 88 1014.3